sat.trackr.live / text

‹ back to catalog

STARCLOUD-1

NORAD 66303 · 2025-248L

PAYLOAD ACTIVE UNKNOWN

§ Identity

Operator
Country
US
Launch date
2025-11-02
Launch site
AFETR
Launch vehicle
Mass (kg)
RCS (m²)

External: N2YO · Heavens-Above · Gunter

§ Orbital elements

Epoch: 2026-05-24T15:33:37.713888Z

Period
94.67 min
Inclination
45.4010°
Eccentricity
0.0007004
Mean motion
15.21027335 rev/d
Perigee alt
497.9 km
Apogee alt
507.6 km
Semi-major
6,880.9 km
B*
1.8830e-4
RAAN
246.6908°
Arg perigee
269.6243°
Mean anomaly
90.3841°
Rev number
3,095

§ Raw data

STARCLOUD-11 66303U 25248L   26144.64835317  .00003972  00000+0  18830-3 0  99962 66303  45.4010 246.6908 0007004 269.6243  90.3841 15.21027335 30953

JSON: /api/v1/satellites/66303 · /tle

For live sub-satellite position, see the globe view (requires WebGL).

§ Visibility from observer

Set your observer location to see the next 7 days of passes ≥ 10°. The values pass through the URL so the page stays shareable.

No JS? Fill the form by hand. The geolocation button needs JavaScript.